Date,TemperatureHighF,TemperatureAvgF,TemperatureLowF,DewpointHighF,DewpointAvgF,DewpointLowF,HumidityHigh,HumidityAvg,HumidityLow,PressureMaxIn,PressureMinIn,WindSpeedMaxMPH,WindSpeedAvgMPH,GustSpeedMaxMPH,PrecipitationSumIn
2013-3-1,31.4,23.9,11.9,18.7,14.7,6.5,80,68,55,30.20,30.08,14,4,14,0.00
2013-3-2,28.7,15.5,3.1,11.9,5.6,-1.5,84,66,41,30.22,30.08,12,2,12,0.00
2013-3-3,31.3,16.1,1.8,12.9,5.9,-3.5,83,66,38,30.08,29.97,6,1,6,0.00
2013-3-4,34.3,24.9,14.2,21.9,15.7,6.3,79,68,55,30.03,29.93,19,5,19,0.00
2013-3-5,26.8,25.6,22.9,24.0,21.7,20.1,91,85,77,30.10,29.89,12,4,12,0.00
2013-3-6,35.3,25.1,9.9,30.6,19.5,6.0,86,79,65,30.26,30.09,14,5,14,0.00
2013-3-7,35.1,19.1,2.1,21.9,11.7,-3.2,86,74,54,30.33,30.26,6,2,6,0.00
2013-3-8,39.7,26.8,13.4,29.0,21.1,10.5,92,80,64,30.36,30.14,13,5,13,0.00
2013-3-9,40.7,35.3,29.5,35.4,31.1,24.6,95,85,74,30.15,29.68,17,6,17,0.00
2013-3-10,37.2,35.7,31.7,36.9,34.9,31.3,99,97,94,29.76,29.60,17,3,21,0.00
2013-3-11,33.6,30.7,27.3,33.3,30.2,26.3,99,98,96,29.71,29.52,17,5,17,0.00
2013-3-12,32.7,26.9,20.8,30.4,23.1,17.6,96,86,73,29.99,29.70,16,8,19,0.00
2013-3-13,30.9,21.6,15.5,19.5,13.2,9.5,89,71,47,30.24,29.99,14,6,19,0.00
2013-3-14,39.4,26.2,13.9,38.1,21.7,10.3,96,83,68,30.23,29.94,9,2,11,0.00
2013-3-15,38.6,31.4,25.2,33.8,28.2,23.5,94,88,79,29.94,29.77,7,1,8,0.00
2013-3-16,20.7,20.2,19.2,13.8,13.3,12.3,75,74,73,30.10,30.06,8,4,8,0.00
2013-3-17,30.1,20.6,9.2,17.8,11.1,3.1,80,67,56,30.21,29.96,17,6,19,0.00
2013-3-18,36.8,22.6,14.2,29.9,18.1,8.0,91,83,74,29.96,29.51,20,6,26,0.00
2013-3-19,25.0,17.3,9.9,11.9,7.4,3.0,77,65,51,30.01,29.66,25,14,25,0.00
2013-3-20,24.2,12.3,4.9,7.8,0.6,-5.3,72,59,49,30.05,29.98,20,9,22,0.00
2013-3-21,27.5,14.3,0.6,12.5,4.5,-5.5,78,65,51,30.03,29.95,10,4,13,0.00
2013-3-22,35.4,19.9,5.3,18.0,10.3,0.3,81,67,48,30.03,29.96,7,1,7,0.00
2013-3-23,40.6,27.6,13.6,23.0,17.2,9.2,84,66,45,30.07,29.98,7,2,10,0.00
2013-3-24,35.8,31.3,28.3,28.1,23.3,20.1,81,72,65,30.03,29.80,16,4,16,0.00
2013-3-25,37.4,30.3,19.8,25.6,21.5,15.6,88,70,60,30.09,29.85,16,7,19,0.00
2013-3-26,42.4,33.9,27.1,26.8,22.9,20.3,77,65,51,30.22,30.09,12,4,15,0.00
2013-3-27,45.0,34.6,23.8,26.4,23.4,18.6,81,65,44,30.27,30.21,9,3,9,0.00
2013-3-28,44.8,30.6,17.8,24.2,20.5,16.1,94,69,41,30.30,30.22,7,1,7,0.00
2013-3-29,51.6,34.3,18.9,27.5,22.8,17.0,94,67,36,30.27,30.15,8,1,8,0.00
2013-3-30,50.7,41.6,33.5,40.9,33.6,25.5,95,74,56,30.14,29.76,16,6,19,0.00
2013-3-31,42.5,36.4,28.3,36.6,30.0,16.6,97,79,52,29.91,29.68,21,7,24,0.00